Hourly Data Report for April 17, 2003

SHERBROOKE A
QUEBEC

45°26'00.000" N
71°41'00.000" W
241.40 m
7028124
71610
YSC

Download Data

Hourly Data (April 2003)
Hourly Data Report for April 17, 2003
TIME
LST
Temp Definition
°C
Dew Point Definition
°C
Rel Hum Definition
%
Precip. Amount Definition
mm

Wind Dir Definition
10's deg

Wind Spd Definition
km/h
Visibility Definition
km
Stn Press Definition
kPa
Hmdx Definition


Wind Chill Definition


Weather Definition


00:00 -7.3 -19.1 38   35 15 15.0 99.76   -13  
01:00 -8.3 -19.3 41   34 9 15.0 99.85   -13  
02:00 -9.0 -18.0 48   2 7 15.0 99.93   -13  
03:00 -9.7 -18.3 49   1 9 15.0 100.03   -15  
04:00 -10.7 -19.0 50   35 6 15.0 100.13   -14  
05:00 -11.1 -18.5 54   3 9 15.0 100.22   -16  
06:00 -10.5 -19.8 46   3 9 15.0 100.33   -15  
07:00 -9.8 -19.1 47   36 7 24.1 100.41   -14 Clear
08:00 -8.5 -18.0 46   2 9 24.1 100.44   -13 Clear
09:00 -7.0 -18.9 38   21 6 24.1 100.46   -10 Clear
10:00 -5.4 -19.4 32   9 4 24.1 100.44   -7 Clear
11:00 -3.0 -16.9 33   28 9 24.1 100.43   -7 Clear
12:00 -2.3 -17.3 31   24 6 24.1 100.41   -5 Clear
13:00 -0.2 -16.1 29   36 9 24.1 100.36   -3 Mainly Clear
14:00 0.2 -18.4 23   36 6 24.1 100.30     Clear
15:00 0.6 -18.4 23   30 7 24.1 100.24     Mainly Clear
16:00 1.4 -19.3 20   3 7 24.1 100.25     Clear
17:00 1.2 -19.3 20   12 6 15.0 100.23      
18:00 0.5 -19.6 20   3 4 15.0 100.22      
19:00 -1.2 -18.1 26   3 7 15.0 100.21   -4  
20:00 -2.7 -16.3 34   5 7 15.0 100.22   -6  
21:00 -3.6 -15.4 39   6 9 15.0 100.21   -7  
22:00 -4.3 -14.4 45   6 11 15.0 100.18   -9  
23:00 -4.4 -14.0 47   5 9 15.0 100.16   -8  

Notes on Data Quality.

Legend

  • E = Estimated
  • M = Missing
  • NA = Not Available*
  • [empty] = Indicates an unobserved value
Date modified: